| time (UTC) | temp F | wind direction | speed knots | gust knots | rain 1hr in | rain 24hr in | rain mn in | humidity % | barometer mb |
| 20260903161500 | 81 | 250 | 2.6 | 9.6 | 0.00 | 1.38 | 1.28 | 77 | 1014.8 |
| 20260903160107 | 80 | 271 | 4.3 | 12.2 | 0.00 | 1.38 | 1.28 | 78 | 1015.0 |
| 20260903154554 | 79 | 210 | 4.3 | 10.4 | 0.00 | 1.38 | 1.28 | 80 | 1015.6 |
| 20260903153051 | 78 | 271 | 2.6 | 7.8 | 0.00 | 1.38 | 1.28 | 86 | 1015.8 |
| 20260903151554 | 78 | 239 | 3.5 | 8.7 | 0.00 | 1.38 | 1.28 | 86 | 1015.6 |
| 20260903150056 | 78 | 218 | 1.7 | 8.7 | 0.00 | 1.38 | 1.28 | 87 | 1015.6 |
| 20260903144554 | 77 | 280 | 2.6 | 11.3 | 0.00 | 1.38 | 1.28 | 87 | 1016.0 |
| 20260903143148 | 77 | 216 | 0.0 | 7.0 | 0.00 | 1.38 | 1.28 | 88 | 1015.7 |
| 20260903141545 | 77 | 256 | 1.7 | 4.3 | 0.00 | 1.38 | 1.28 | 87 | 1015.4 |
| 20260903140043 | 76 | 132 | 2.6 | 8.7 | 0.00 | 1.38 | 1.28 | 89 | 1015.2 |
| 20260903134540 | 76 | 236 | 0.0 | 0.9 | 0.00 | 1.38 | 1.28 | 92 | 1015.3 |
| 20260903133040 | 74 | 216 | 0.0 | 3.5 | 0.00 | 1.38 | 1.28 | 92 | 1015.3 |
| 20260903131539 | 74 | 198 | 0.9 | 5.2 | 0.00 | 1.38 | 1.28 | 92 | 1015.0 |
| 20260903130036 | 73 | 336 | 0.0 | 0.9 | 0.00 | 1.38 | 1.28 | 95 | 1015.0 |
| 20260903124527 | 71 | 252 | 0.0 | 1.7 | 0.00 | 1.39 | 1.28 | 95 | 1015.1 |
| 20260903123025 | 71 | 200 | 2.6 | 8.7 | 0.00 | 1.39 | 1.28 | 95 | 1015.1 |
| 20260903121524 | 70 | 210 | 5.2 | 9.6 | 0.00 | 1.39 | 1.28 | 96 | 1015.1 |
| 20260903120022 | 70 | 169 | 6.1 | 14.8 | 0.00 | 1.39 | 1.28 | 96 | 1015.0 |
| 20260903114521 | 69 | 229 | 4.3 | 13.0 | 0.00 | 1.40 | 1.28 | 97 | 1014.8 |
| 20260903113027 | 69 | 221 | 5.2 | 10.4 | 0.01 | 1.40 | 1.28 | 97 | 1014.5 |
| 20260903111517 | 68 | 198 | 3.5 | 9.6 | 0.01 | 1.40 | 1.28 | 98 | 1014.9 |
| 20260903110024 | 68 | 163 | 0.9 | 9.6 | 0.01 | 1.40 | 1.28 | 98 | 1015.5 |
| 20260903104513 | 68 | 215 | 0.0 | 1.7 | 0.01 | 1.40 | 1.28 | 98 | 1016.3 |
| 20260903103012 | 68 | 49 | 0.0 | 2.6 | 0.00 | 1.39 | 1.27 | 98 | 1016.8 |
| 20260903101511 | 68 | 225 | 2.6 | 10.4 | 0.00 | 1.39 | 1.27 | 98 | 1016.2 |
| 20260903100011 | 68 | 213 | 5.2 | 12.2 | 0.03 | 1.39 | 1.27 | 98 | 1016.1 |
| 20260903094523 | 68 | 199 | 3.5 | 12.2 | 0.06 | 1.39 | 1.27 | 98 | 1016.0 |
| 20260903093009 | 68 | 183 | 3.5 | 7.8 | 0.11 | 1.39 | 1.27 | 99 | 1016.3 |
| 20260903091508 | 67 | 224 | 1.7 | 8.7 | 0.14 | 1.39 | 1.27 | 98 | 1015.8 |
| 20260903090007 | 67 | 227 | 0.0 | 5.2 | 0.36 | 1.36 | 1.24 | 98 | 1016.7 |
| 20260903084506 | 67 | 240 | 0.0 | 1.7 | 0.43 | 1.33 | 1.20 | 98 | 1016.5 |
| 20260903083005 | 67 | 221 | 0.0 | 2.6 | 0.39 | 1.28 | 1.14 | 98 | 1016.6 |
| 20260903081503 | 67 | 123 | 0.0 | 0.9 | 0.37 | 1.26 | 1.12 | 98 | 1016.8 |
| 20260903080005 | 68 | 250 | 5.2 | 13.0 | 0.10 | 0.99 | 0.86 | 98 | 1018.9 |
| 20260903074504 | 68 | 37 | 0.0 | 3.5 | 0.01 | 0.90 | 0.77 | 98 | 1017.4 |
| 20260903073002 | 68 | 232 | 0.0 | 0.0 | 0.00 | 0.89 | 0.76 | 98 | 1017.3 |
| 20260903071502 | 68 | 232 | 0.0 | 0.9 | 0.00 | 0.89 | 0.76 | 98 | 1016.9 |
| 20260903064604 | 68 | 232 | 0.0 | 0.9 | 0.00 | 0.89 | 0.76 | 98 | 1016.7 |
| 20260903063059 | 68 | 54 | 0.0 | 1.7 | 0.03 | 0.89 | 0.76 | 98 | 1017.0 |
| 20260903061602 | 68 | 222 | 0.0 | 1.7 | 0.70 | 0.89 | 0.76 | 98 | 1016.9 |
| 20260903060058 | 68 | 241 | 0.9 | 3.5 | 0.73 | 0.89 | 0.76 | 98 | 1017.2 |
| 20260903054558 | 68 | 92 | 0.0 | 3.5 | 0.74 | 0.89 | 0.76 | 98 | 1017.5 |
| 20260903053107 | 69 | 102 | 0.9 | 3.5 | 0.71 | 0.85 | 0.72 | 98 | 1017.7 |
| 20260903051555 | 70 | 296 | 0.9 | 4.3 | 0.04 | 0.18 | 0.05 | 98 | 1019.1 |
| 20260903050048 | 70 | 339 | 0.0 | 0.9 | 0.03 | 0.16 | 0.03 | 98 | 1018.1 |
| 20260903044554 | 70 | 273 | 0.0 | 0.9 | 0.02 | 0.15 | 0.02 | 98 | 1018.2 |
| 20260903043045 | 70 | 251 | 0.0 | 0.9 | 0.01 | 0.14 | 0.01 | 98 | 1017.3 |
| 20260903041543 | 70 | 106 | 0.0 | 0.0 | 0.01 | 0.14 | 0.01 | 98 | 1017.5 |
| 20260903040041 | 70 | 112 | 0.0 | 0.0 | 0.00 | 0.13 | 0.00 | 98 | 1017.7 |
| 20260903034540 | 70 | 112 | 0.0 | 0.0 | 0.00 | 0.13 | 0.13 | 98 | 1017.5 |
| 20260903033040 | 70 | 112 | 0.0 | 0.0 | 0.00 | 0.13 | 0.13 | 98 | 1018.0 |
| 20260903031539 | 70 | 112 | 0.0 | 0.0 | 0.00 | 0.13 | 0.13 | 98 | 1018.0 |
| 20260903030043 | 70 | 112 | 0.0 | 0.0 | 0.00 | 0.13 | 0.13 | 98 | 1017.4 |
| 20260903024543 | 70 | 112 | 0.0 | 0.0 | 0.00 | 0.13 | 0.13 | 98 | 1017.7 |
| 20260903023038 | 70 | 112 | 0.0 | 0.0 | 0.00 | 0.13 | 0.13 | 98 | 1017.9 |
| 20260903021538 | 70 | 110 | 0.0 | 0.0 | 0.00 | 0.13 | 0.13 | 98 | 1017.9 |
| 20260903020036 | 70 | 110 | 0.0 | 0.9 | 0.00 | 0.13 | 0.13 | 98 | 1017.5 |
| 20260903014538 | 70 | 342 | 0.0 | 0.9 | 0.00 | 0.13 | 0.13 | 98 | 1017.5 |
| 20260903013036 | 70 | 51 | 0.0 | 0.9 | 0.00 | 0.13 | 0.13 | 98 | 1017.5 |
| 20260903011541 | 71 | 113 | 0.0 | 0.0 | 0.00 | 0.13 | 0.13 | 98 | 1017.5 |
| 20260903010035 | 71 | 112 | 0.0 | 0.0 | 0.00 | 0.13 | 0.13 | 98 | 1017.7 |
| 20260903004534 | 71 | 115 | 0.0 | 0.0 | 0.00 | 0.14 | 0.13 | 98 | 1017.7 |
| 20260903003035 | 71 | 121 | 0.0 | 0.0 | 0.00 | 0.14 | 0.13 | 98 | 1017.7 |
| 20260903001533 | 71 | 121 | 0.0 | 1.7 | 0.00 | 0.14 | 0.13 | 98 | 1017.5 |
| 20260903000033 | 71 | 295 | 0.0 | 3.5 | 0.00 | 0.14 | 0.13 | 98 | 1017.3 |
| 20260902234532 | 71 | 133 | 0.0 | 0.9 | 0.00 | 0.62 | 0.13 | 97 | 1017.0 |
| 20260902233037 | 71 | 258 | 0.0 | 0.9 | 0.00 | 0.62 | 0.13 | 97 | 1017.2 |
| 20260902231536 | 71 | 98 | 0.0 | 2.6 | 0.00 | 0.62 | 0.13 | 97 | 1017.3 |
| 20260902230031 | 71 | 110 | 0.0 | 1.7 | 0.00 | 0.62 | 0.13 | 97 | 1017.4 |
| 20260902224530 | 71 | 202 | 0.0 | 2.6 | 0.00 | 0.62 | 0.13 | 97 | 1017.5 |
| 20260902223031 | 71 | 220 | 0.0 | 0.0 | 0.00 | 0.62 | 0.13 | 97 | 1017.6 |
| 20260902221529 | 71 | 182 | 0.0 | 1.7 | 0.00 | 0.62 | 0.13 | 97 | 1017.7 |
| 20260902220031 | 72 | 322 | 0.0 | 0.9 | 0.00 | 0.62 | 0.13 | 97 | 1017.8 |
| 20260902214529 | 72 | 118 | 0.0 | 1.7 | 0.00 | 0.62 | 0.13 | 97 | 1018.0 |
| 20260902213028 | 72 | 293 | 0.0 | 0.9 | 0.00 | 0.62 | 0.13 | 96 | 1018.0 |
| 20260902211527 | 72 | 275 | 0.0 | 0.9 | 0.00 | 0.62 | 0.13 | 97 | 1017.7 |
| 20260902210033 | 72 | 115 | 0.0 | 1.7 | 0.00 | 0.62 | 0.13 | 96 | 1017.5 |
| 20260902204537 | 72 | 138 | 0.0 | 1.7 | 0.00 | 0.62 | 0.13 | 97 | 1017.1 |
| 20260902203026 | 72 | 77 | 0.0 | 0.9 | 0.00 | 0.62 | 0.13 | 96 | 1017.4 |
| 20260902201530 | 72 | 77 | 0.0 | 0.0 | 0.00 | 0.62 | 0.13 | 97 | 1017.7 |
| 20260902200025 | 72 | 77 | 0.0 | 0.9 | 0.00 | 0.62 | 0.13 | 97 | 1018.1 |
| 20260902194523 | 72 | 350 | 0.0 | 2.6 | 0.00 | 0.62 | 0.13 | 97 | 1018.0 |
| 20260902193024 | 72 | 244 | 0.0 | 0.9 | 0.01 | 0.62 | 0.13 | 97 | 1017.5 |
| 20260902191523 | 72 | 275 | 0.0 | 0.9 | 0.01 | 0.62 | 0.13 | 97 | 1017.8 |
| 20260902190022 | 72 | 200 | 0.0 | 2.6 | 0.01 | 0.62 | 0.13 | 97 | 1017.7 |
| 20260902184522 | 72 | 226 | 0.0 | 0.0 | 0.02 | 0.62 | 0.13 | 98 | 1017.9 |
| 20260902183020 | 71 | 228 | 0.0 | 0.0 | 0.03 | 0.61 | 0.12 | 98 | 1018.4 |
| 20260902181520 | 71 | 228 | 0.0 | 0.0 | 0.06 | 0.61 | 0.12 | 98 | 1018.7 |
| 20260902180019 | 71 | 228 | 0.0 | 0.0 | 0.09 | 0.61 | 0.12 | 98 | 1018.7 |
| 20260902174517 | 70 | 228 | 0.0 | 0.9 | 0.08 | 0.60 | 0.11 | 97 | 1019.3 |
| 20260902173016 | 70 | 227 | 0.0 | 0.9 | 0.06 | 0.57 | 0.09 | 97 | 1019.0 |
| 20260902171515 | 70 | 220 | 0.0 | 0.9 | 0.03 | 0.55 | 0.06 | 97 | 1019.0 |
| 20260902170014 | 71 | 96 | 0.0 | 0.0 | 0.00 | 0.52 | 0.03 | 97 | 1019.5 |
| 20260902164518 | 71 | 96 | 0.0 | 0.0 | 0.00 | 0.52 | 0.03 | 97 | 1020.0 |
| 20260902163011 | 71 | 119 | 0.0 | 1.7 | 0.00 | 0.52 | 0.03 | 97 | 1019.7 |